Time,TemperatureF,DewpointF,PressureIn,WindDirection,WindDirectionDegrees,WindSpeedMPH,WindSpeedGustMPH,Humidity,HourlyPrecipIn,Conditions,Clouds,dailyrainin,SolarRadiationWatts/m^2,SoftwareType,DateUTC
2013-04-08 00:00:00,54.7,52.4,30.19,SSE,161,0.0,0.0,92,0.00,CLR,OVC,0.00,0.0,WeatherDisplay:10.37,2013-04-08 04:00:00,
2013-04-08 00:01:00,54.7,52.4,30.19,SSE,161,0.0,0.0,92,0.00,CLR,OVC,0.00,0.0,WeatherDisplay:10.37,2013-04-08 04:01:00,
2013-04-08 00:06:00,54.5,52.2,30.19,SSE,161,0.0,0.0,92,0.00,CLR,OVC,0.00,0.0,WeatherDisplay:10.37,2013-04-08 04:06:00,
2013-04-08 00:11:00,54.3,52.0,30.19,SSE,161,0.0,0.0,92,0.00,CLR,OVC,0.00,0.0,WeatherDisplay:10.37,2013-04-08 04:11:00,
2013-04-08 00:16:00,54.2,51.9,30.19,South,178,0.0,0.0,92,0.00,CLR,OVC,0.00,0.0,WeatherDisplay:10.37,2013-04-08 04:16:00,
2013-04-08 00:22:00,54.1,52.1,30.19,South,178,0.0,0.0,93,0.00,CLR,OVC,0.00,0.0,WeatherDisplay:10.37,2013-04-08 04:22:00,
2013-04-08 00:27:00,54.0,52.0,30.19,South,173,0.0,0.0,93,0.00,CLR,OVC,0.00,0.0,WeatherDisplay:10.37,2013-04-08 04:27:00,
2013-04-08 00:32:00,54.0,52.0,30.19,South,173,0.0,0.0,93,0.00,CLR,OVC,0.00,0.0,WeatherDisplay:10.37,2013-04-08 04:32:00,
2013-04-08 00:37:00,54.0,52.3,30.19,South,173,0.2,1.1,94,0.00,CLR,OVC,0.00,0.0,WeatherDisplay:10.37,2013-04-08 04:37:00,
2013-04-08 00:42:00,54.0,52.3,30.18,South,173,0.3,1.1,94,0.00,CLR,OVC,0.00,0.0,WeatherDisplay:10.37,2013-04-08 04:42:00,
2013-04-08 00:47:00,54.1,52.4,30.18,South,173,0.7,2.3,94,0.00,CLR,OVC,0.00,0.0,WeatherDisplay:10.37,2013-04-08 04:47:00,
2013-04-08 00:52:00,54.2,52.8,30.18,South,173,0.1,1.1,95,0.00,CLR,OVC,0.00,0.0,WeatherDisplay:10.37,2013-04-08 04:52:00,
2013-04-08 00:57:00,54.2,52.8,30.18,South,173,0.3,1.1,95,0.00,CLR,OVC,0.00,0.0,WeatherDisplay:10.37,2013-04-08 04:57:00,
2013-04-08 01:02:00,54.2,52.8,30.18,SSE,156,0.9,3.5,95,0.00,CLR,OVC,0.00,0.0,WeatherDisplay:10.37,2013-04-08 05:02:00,
2013-04-08 01:07:00,54.2,52.8,30.18,SSE,156,0.3,2.3,95,0.00,CLR,OVC,0.00,0.0,WeatherDisplay:10.37,2013-04-08 05:07:00,
2013-04-08 01:12:00,54.3,52.9,30.18,SSE,164,0.1,2.0,95,0.00,CLR,OVC,0.00,0.0,WeatherDisplay:10.37,2013-04-08 05:12:00,
2013-04-08 01:17:00,54.4,53.0,30.18,SSE,164,0.0,0.0,95,0.00,CLR,OVC,0.00,0.0,WeatherDisplay:10.37,2013-04-08 05:17:00,
2013-04-08 01:22:00,54.4,53.0,30.18,SSE,163,0.0,0.0,95,0.00,CLR,OVC,0.00,0.0,WeatherDisplay:10.37,2013-04-08 05:22:00,
2013-04-08 01:27:00,54.4,53.0,30.17,SSE,163,0.5,2.3,95,0.00,CLR,OVC,0.00,0.0,WeatherDisplay:10.37,2013-04-08 05:27:00,
2013-04-08 01:32:00,54.5,53.1,30.18,SSE,165,0.0,1.1,95,0.00,CLR,OVC,0.00,0.0,WeatherDisplay:10.37,2013-04-08 05:32:00,
2013-04-08 01:37:00,54.6,53.2,30.17,SSE,165,0.3,2.3,95,0.00,CLR,OVC,0.00,0.0,WeatherDisplay:10.37,2013-04-08 05:37:00,
2013-04-08 01:42:00,54.6,53.2,30.17,South,169,0.9,3.5,95,0.00,CLR,OVC,0.00,0.0,WeatherDisplay:10.37,2013-04-08 05:42:00,
2013-04-08 01:47:00,54.6,53.2,30.17,South,169,0.7,2.3,95,0.00,CLR,OVC,0.00,0.0,WeatherDisplay:10.37,2013-04-08 05:47:00,
2013-04-08 01:53:00,54.6,53.2,30.17,South,174,0.2,1.1,95,0.00,CLR,OVC,0.00,0.0,WeatherDisplay:10.37,2013-04-08 05:53:00,
2013-04-08 01:58:00,54.6,53.2,30.17,South,174,0.1,2.3,95,0.00,CLR,OVC,0.00,0.0,WeatherDisplay:10.37,2013-04-08 05:58:00,
2013-04-08 02:03:00,54.6,53.2,30.17,South,174,0.6,3.5,95,0.00,CLR,OVC,0.00,0.0,WeatherDisplay:10.37,2013-04-08 06:03:00,
2013-04-08 02:08:00,54.6,53.2,30.16,South,186,0.5,2.0,95,0.00,CLR,OVC,0.00,0.0,WeatherDisplay:10.37,2013-04-08 06:08:00,
2013-04-08 02:13:00,54.7,53.6,30.16,South,180,0.2,1.1,96,0.00,CLR,OVC,0.00,0.0,WeatherDisplay:10.37,2013-04-08 06:13:00,
2013-04-08 02:18:00,54.8,53.7,30.16,South,179,0.0,1.1,96,0.00,CLR,OVC,0.00,0.0,WeatherDisplay:10.37,2013-04-08 06:18:00,
2013-04-08 02:23:00,54.8,53.7,30.16,South,179,0.0,0.0,96,0.00,CLR,OVC,0.00,0.0,WeatherDisplay:10.37,2013-04-08 06:23:00,
2013-04-08 02:28:00,54.8,53.7,30.16,South,175,0.0,1.1,96,0.00,CLR,OVC,0.00,0.0,WeatherDisplay:10.37,2013-04-08 06:28:00,
2013-04-08 02:33:00,54.8,53.4,30.16,South,175,0.0,0.0,95,0.00,CLR,OVC,0.00,0.0,WeatherDisplay:10.37,2013-04-08 06:33:00,
2013-04-08 02:38:00,54.8,53.7,30.15,South,175,0.0,1.1,96,0.00,CLR,OVC,0.00,0.0,WeatherDisplay:10.37,2013-04-08 06:38:00,
2013-04-08 02:43:00,54.7,53.3,30.15,South,175,0.4,0.0,95,0.00,CLR,OVC,0.00,0.0,WeatherDisplay:10.37,2013-04-08 06:43:00,
2013-04-08 02:48:00,54.7,53.3,30.15,South,175,0.0,0.0,95,0.00,CLR,OVC,0.00,0.0,WeatherDisplay:10.37,2013-04-08 06:48:00,
2013-04-08 02:53:00,54.7,53.6,30.15,South,175,0.0,0.0,96,0.00,CLR,OVC,0.00,0.0,WeatherDisplay:10.37,2013-04-08 06:53:00,
2013-04-08 02:58:00,54.7,53.6,30.15,South,175,0.0,0.0,96,0.00,CLR,OVC,0.00,0.0,WeatherDisplay:10.37,2013-04-08 06:58:00,
2013-04-08 03:03:00,54.7,53.6,30.15,South,175,0.2,1.1,96,0.00,CLR,OVC,0.00,0.0,WeatherDisplay:10.37,2013-04-08 07:03:00,
2013-04-08 03:08:00,54.6,53.5,30.15,South,175,0.0,1.1,96,0.00,CLR,OVC,0.00,0.0,WeatherDisplay:10.37,2013-04-08 07:08:00,
2013-04-08 03:13:00,54.6,53.2,30.15,South,174,0.0,1.1,95,0.00,CLR,OVC,0.00,0.0,WeatherDisplay:10.37,2013-04-08 07:13:00,
2013-04-08 03:18:00,54.5,53.1,30.15,South,169,0.0,1.1,95,0.00,CLR,OVC,0.00,0.0,WeatherDisplay:10.37,2013-04-08 07:18:00,
2013-04-08 03:23:00,54.5,53.4,30.15,South,169,0.2,1.1,96,0.00,CLR,OVC,0.00,0.0,WeatherDisplay:10.37,2013-04-08 07:23:00,
2013-04-08 03:28:00,54.4,53.3,30.15,South,169,0.0,0.0,96,0.00,CLR,OVC,0.00,0.0,WeatherDisplay:10.37,2013-04-08 07:28:00,
2013-04-08 03:33:00,54.4,53.3,30.15,South,169,0.0,0.0,96,0.00,CLR,OVC,0.00,0.0,WeatherDisplay:10.37,2013-04-08 07:33:00,
2013-04-08 03:38:00,54.2,52.8,30.15,South,169,0.0,0.0,95,0.00,CLR,OVC,0.00,0.0,WeatherDisplay:10.37,2013-04-08 07:38:00,
2013-04-08 03:43:00,54.1,52.7,30.15,South,169,0.0,0.0,95,0.00,CLR,OVC,0.00,0.0,WeatherDisplay:10.37,2013-04-08 07:43:00,
2013-04-08 03:48:00,53.7,52.0,30.15,South,169,0.0,0.0,94,0.00,CLR,OVC,0.00,0.0,WeatherDisplay:10.37,2013-04-08 07:48:00,
2013-04-08 03:53:00,53.3,51.6,30.15,South,169,0.0,0.0,94,0.00,CLR,OVC,0.00,0.0,WeatherDisplay:10.37,2013-04-08 07:53:00,
2013-04-08 03:58:00,53.0,51.3,30.15,South,169,0.0,0.0,94,0.00,CLR,OVC,0.00,0.0,WeatherDisplay:10.37,2013-04-08 07:58:00,
2013-04-08 04:03:00,52.7,51.0,30.15,South,169,0.0,0.0,94,0.00,CLR,OVC,0.00,0.0,WeatherDisplay:10.37,2013-04-08 08:03:00,
2013-04-08 04:08:00,52.5,50.8,30.15,South,169,0.0,0.0,94,0.00,CLR,OVC,0.00,0.0,WeatherDisplay:10.37,2013-04-08 08:08:00,
2013-04-08 04:13:00,52.3,50.9,30.15,South,169,0.0,0.0,95,0.00,CLR,OVC,0.00,0.0,WeatherDisplay:10.37,2013-04-08 08:13:00,
2013-04-08 04:18:00,52.1,50.4,30.15,South,169,0.0,0.0,94,0.00,CLR,OVC,0.00,0.0,WeatherDisplay:10.37,2013-04-08 08:18:00,
2013-04-08 04:23:00,51.9,50.5,30.15,South,169,0.0,0.0,95,0.00,CLR,OVC,0.00,0.0,WeatherDisplay:10.37,2013-04-08 08:23:00,
2013-04-08 04:28:00,51.8,50.4,30.15,South,169,0.0,0.0,95,0.00,CLR,OVC,0.00,0.0,WeatherDisplay:10.37,2013-04-08 08:28:00,
2013-04-08 04:33:00,51.7,50.3,30.15,South,169,0.0,0.0,95,0.00,CLR,OVC,0.00,0.0,WeatherDisplay:10.37,2013-04-08 08:33:00,
2013-04-08 04:38:00,51.6,50.2,30.16,South,169,0.0,0.0,95,0.00,CLR,OVC,0.00,0.0,WeatherDisplay:10.37,2013-04-08 08:38:00,
2013-04-08 04:43:00,51.5,50.1,30.16,South,169,0.0,0.0,95,0.00,CLR,OVC,0.00,0.0,WeatherDisplay:10.37,2013-04-08 08:43:00,
2013-04-08 04:48:00,51.3,49.9,30.16,South,169,0.0,0.0,95,0.00,CLR,OVC,0.00,0.0,WeatherDisplay:10.37,2013-04-08 08:48:00,
2013-04-08 04:53:00,51.0,49.6,30.16,South,169,0.0,0.0,95,0.00,CLR,OVC,0.00,0.0,WeatherDisplay:10.37,2013-04-08 08:53:00,
2013-04-08 04:58:00,50.9,49.5,30.16,South,169,0.0,0.0,95,0.00,CLR,OVC,0.00,0.0,WeatherDisplay:10.37,2013-04-08 08:58:00,
2013-04-08 05:03:00,50.8,49.4,30.16,South,169,0.0,0.0,95,0.00,CLR,OVC,0.00,0.0,WeatherDisplay:10.37,2013-04-08 09:03:00,
2013-04-08 05:08:00,50.6,49.2,30.16,South,169,0.0,0.0,95,0.00,CLR,OVC,0.00,0.0,WeatherDisplay:10.37,2013-04-08 09:08:00,
2013-04-08 05:13:00,50.5,49.1,30.16,South,169,0.0,0.0,95,0.00,CLR,OVC,0.00,0.0,WeatherDisplay:10.37,2013-04-08 09:13:00,
2013-04-08 05:18:00,50.4,49.0,30.17,South,169,0.0,0.0,95,0.00,CLR,OVC,0.00,0.0,WeatherDisplay:10.37,2013-04-08 09:18:00,
2013-04-08 05:23:00,50.4,49.3,30.17,South,169,0.0,0.0,96,0.00,CLR,OVC,0.00,0.0,WeatherDisplay:10.37,2013-04-08 09:23:00,
2013-04-08 05:29:00,50.4,49.3,30.17,South,169,0.0,0.0,96,0.00,CLR,OVC,0.00,0.0,WeatherDisplay:10.37,2013-04-08 09:29:00,
2013-04-08 05:34:00,50.5,49.4,30.17,South,169,0.0,0.0,96,0.00,CLR,OVC,0.00,0.0,WeatherDisplay:10.37,2013-04-08 09:34:00,
2013-04-08 05:40:00,50.4,49.3,30.17,South,169,0.0,0.0,96,0.00,CLR,OVC,0.00,0.0,WeatherDisplay:10.37,2013-04-08 09:40:00,
2013-04-08 05:45:00,50.2,49.1,30.17,South,169,0.0,0.0,96,0.00,CLR,OVC,0.00,0.0,WeatherDisplay:10.37,2013-04-08 09:45:00,
2013-04-08 05:50:00,50.0,48.6,30.17,South,169,0.0,0.0,95,0.00,CLR,OVC,0.00,0.0,WeatherDisplay:10.37,2013-04-08 09:50:00,
2013-04-08 05:55:00,49.9,48.5,30.16,South,169,0.0,0.0,95,0.00,CLR,OVC,0.00,0.0,WeatherDisplay:10.37,2013-04-08 09:55:00,
2013-04-08 06:00:00,49.7,48.6,30.17,South,169,0.0,0.0,96,0.00,CLR,OVC,0.00,0.0,WeatherDisplay:10.37,2013-04-08 10:00:00,
2013-04-08 06:05:00,49.7,48.6,30.17,South,169,0.0,0.0,96,0.00,CLR,OVC,0.00,0.0,WeatherDisplay:10.37,2013-04-08 10:05:00,
2013-04-08 06:11:00,49.6,48.5,30.17,South,169,0.0,0.0,96,0.00,CLR,OVC,0.00,0.0,WeatherDisplay:10.37,2013-04-08 10:11:00,
2013-04-08 06:16:00,49.5,48.4,30.18,South,169,0.0,0.0,96,0.00,CLR,OVC,0.00,0.0,WeatherDisplay:10.37,2013-04-08 10:16:00,
2013-04-08 06:21:00,49.4,48.3,30.18,South,169,0.0,0.0,96,0.00,CLR,OVC,0.00,0.0,WeatherDisplay:10.37,2013-04-08 10:21:00,
2013-04-08 06:26:00,49.2,48.1,30.18,South,169,0.0,0.0,96,0.00,OVC,,0.00,0.0,WeatherDisplay:10.37,2013-04-08 10:26:00,
2013-04-08 06:31:00,49.2,48.1,30.18,South,169,0.0,0.0,96,0.00,OVC,,0.00,0.0,WeatherDisplay:10.37,2013-04-08 10:31:00,
2013-04-08 06:36:00,49.1,48.0,30.18,South,169,0.0,0.0,96,0.00,OVC,,0.00,0.0,WeatherDisplay:10.37,2013-04-08 10:36:00,
2013-04-08 06:41:00,49.0,47.9,30.19,South,169,0.0,0.0,96,0.00,OVC,,0.00,0.0,WeatherDisplay:10.37,2013-04-08 10:41:00,
2013-04-08 06:46:00,49.0,47.9,30.19,South,169,0.0,0.0,96,0.00,OVC,,0.00,0.0,WeatherDisplay:10.37,2013-04-08 10:46:00,
2013-04-08 06:51:00,48.9,47.8,30.19,South,169,0.0,0.0,96,0.00,OVC,,0.00,0.0,WeatherDisplay:10.37,2013-04-08 10:51:00,
2013-04-08 06:56:00,48.8,47.7,30.19,South,169,0.0,0.0,96,0.00,OVC,,0.00,0.0,WeatherDisplay:10.37,2013-04-08 10:56:00,
2013-04-08 07:01:00,48.8,47.7,30.19,South,169,0.0,0.0,96,0.00,OVC,,0.00,0.0,WeatherDisplay:10.37,2013-04-08 11:01:00,
2013-04-08 07:06:00,48.9,47.8,30.20,South,169,0.0,0.0,96,0.00,OVC,,0.00,0.0,WeatherDisplay:10.37,2013-04-08 11:06:00,
2013-04-08 07:12:00,49.0,48.2,30.20,South,169,0.0,0.0,97,0.00,OVC,,0.00,0.0,WeatherDisplay:10.37,2013-04-08 11:12:00,
2013-04-08 07:17:00,49.1,48.3,30.20,South,169,0.0,0.0,97,0.00,OVC,,0.00,0.0,WeatherDisplay:10.37,2013-04-08 11:17:00,
2013-04-08 07:22:00,49.3,48.5,30.20,East,88,0.0,0.0,97,0.00,OVC,,0.00,0.0,WeatherDisplay:10.37,2013-04-08 11:22:00,
2013-04-08 07:27:00,49.7,48.9,30.21,NW,322,0.0,0.0,97,0.00,OVC,,0.00,0.0,WeatherDisplay:10.37,2013-04-08 11:27:00,
2013-04-08 07:32:00,50.2,49.4,30.21,WNW,303,0.0,0.0,97,0.00,OVC,,0.00,0.0,WeatherDisplay:10.37,2013-04-08 11:32:00,
2013-04-08 07:37:00,51.1,50.6,30.21,WNW,303,0.0,0.0,98,0.00,OVC,,0.00,0.0,WeatherDisplay:10.37,2013-04-08 11:37:00,
2013-04-08 07:42:00,52.4,51.9,30.21,WNW,303,0.0,0.0,98,0.00,OVC,,0.00,0.0,WeatherDisplay:10.37,2013-04-08 11:42:00,
2013-04-08 07:47:00,53.7,53.1,30.21,WNW,303,0.0,0.0,98,0.00,OVC,,0.00,0.0,WeatherDisplay:10.37,2013-04-08 11:47:00,
2013-04-08 07:52:00,55.0,54.4,30.21,WNW,303,0.0,0.0,98,0.00,OVC,,0.00,0.0,WeatherDisplay:10.37,2013-04-08 11:52:00,
2013-04-08 07:57:00,56.2,55.6,30.21,WNW,303,0.0,0.0,98,0.00,OVC,,0.00,0.0,WeatherDisplay:10.37,2013-04-08 11:57:00,
2013-04-08 08:02:00,57.5,56.9,30.20,WNW,303,0.0,0.0,98,0.00,OVC,,0.00,0.0,WeatherDisplay:10.37,2013-04-08 12:02:00,
2013-04-08 08:07:00,58.2,57.6,30.20,WNW,303,0.0,0.0,98,0.00,OVC,,0.00,0.0,WeatherDisplay:10.37,2013-04-08 12:07:00,
2013-04-08 08:12:00,58.9,58.3,30.20,WNW,303,0.0,0.0,98,0.00,OVC,,0.00,0.0,WeatherDisplay:10.37,2013-04-08 12:12:00,
2013-04-08 08:17:00,60.0,59.4,30.21,WNW,303,0.0,0.0,98,0.00,OVC,,0.00,0.0,WeatherDisplay:10.37,2013-04-08 12:17:00,
2013-04-08 08:22:00,61.1,60.5,30.21,WNW,303,0.1,0.0,98,0.00,OVC,,0.00,0.0,WeatherDisplay:10.37,2013-04-08 12:22:00,
2013-04-08 08:27:00,61.9,61.0,30.21,WNW,303,0.0,0.0,97,0.00,OVC,,0.00,0.0,WeatherDisplay:10.37,2013-04-08 12:27:00,
2013-04-08 08:33:00,62.9,60.8,30.21,WNW,302,0.2,1.1,93,0.00,OVC,,0.00,0.0,WeatherDisplay:10.37,2013-04-08 12:33:00,
2013-04-08 08:38:00,63.6,60.9,30.21,WNW,302,0.5,1.1,91,0.00,OVC,,0.00,0.0,WeatherDisplay:10.37,2013-04-08 12:38:00,
2013-04-08 08:43:00,64.2,60.6,30.21,SW,223,1.5,3.5,88,0.00,OVC,,0.00,0.0,WeatherDisplay:10.37,2013-04-08 12:43:00,
2013-04-08 08:48:00,64.9,60.9,30.21,SSW,195,0.0,1.1,87,0.00,OVC,,0.00,0.0,WeatherDisplay:10.37,2013-04-08 12:48:00,
2013-04-08 08:53:00,65.6,61.0,30.21,South,171,2.0,4.0,85,0.00,OVC,,0.00,0.0,WeatherDisplay:10.37,2013-04-08 12:53:00,
2013-04-08 08:58:00,66.4,61.4,30.21,South,189,0.4,0.0,84,0.00,OVC,,0.00,0.0,WeatherDisplay:10.37,2013-04-08 12:58:00,
2013-04-08 09:03:00,67.0,61.3,30.21,South,183,0.5,6.9,82,0.00,OVC,,0.00,0.0,WeatherDisplay:10.37,2013-04-08 13:03:00,
2013-04-08 09:08:00,67.5,61.1,30.21,South,189,0.3,4.6,80,0.00,OVC,,0.00,0.0,WeatherDisplay:10.37,2013-04-08 13:08:00,
2013-04-08 09:13:00,68.0,61.6,30.21,SSW,202,0.0,3.5,80,0.00,OVC,,0.00,0.0,WeatherDisplay:10.37,2013-04-08 13:13:00,
2013-04-08 09:18:00,68.6,61.5,30.21,South,178,1.1,4.0,78,0.00,OVC,,0.00,0.0,WeatherDisplay:10.37,2013-04-08 13:18:00,
2013-04-08 09:23:00,69.0,61.5,30.21,South,190,0.5,4.6,77,0.00,OVC,,0.00,0.0,WeatherDisplay:10.37,2013-04-08 13:23:00,
2013-04-08 09:28:00,69.6,61.7,30.21,SW,229,1.8,4.6,76,0.00,OVC,,0.00,0.0,WeatherDisplay:10.37,2013-04-08 13:28:00,
2013-04-08 09:33:00,70.1,61.8,30.21,SW,221,3.8,5.8,75,0.00,OVC,,0.00,0.0,WeatherDisplay:10.37,2013-04-08 13:33:00,
2013-04-08 09:38:00,70.4,61.3,30.21,SW,225,2.2,5.0,73,0.00,OVC,,0.00,0.0,WeatherDisplay:10.37,2013-04-08 13:38:00,
2013-04-08 09:43:00,70.6,61.1,30.21,South,177,5.0,6.9,72,0.00,OVC,,0.00,0.0,WeatherDisplay:10.37,2013-04-08 13:43:00,
2013-04-08 09:48:00,70.9,61.4,30.21,SW,227,4.3,5.8,72,0.00,OVC,,0.00,0.0,WeatherDisplay:10.37,2013-04-08 13:48:00,
2013-04-08 09:53:00,71.3,61.4,30.21,SW,215,2.0,3.5,71,0.00,OVC,,0.00,0.0,WeatherDisplay:10.37,2013-04-08 13:53:00,
2013-04-08 09:58:00,71.6,60.9,30.21,South,186,6.1,9.2,69,0.00,OVC,,0.00,0.0,WeatherDisplay:10.37,2013-04-08 13:58:00,
2013-04-08 10:03:00,71.8,61.5,30.21,SSW,208,2.0,3.5,70,0.00,OVC,,0.00,0.0,WeatherDisplay:10.37,2013-04-08 14:03:00,
2013-04-08 10:08:00,72.1,61.4,30.21,SW,234,4.4,6.0,69,0.00,OVC,,0.00,0.0,WeatherDisplay:10.37,2013-04-08 14:08:00,
2013-04-08 10:13:00,72.2,61.0,30.21,South,169,4.5,6.9,68,0.00,OVC,,0.00,0.0,WeatherDisplay:10.37,2013-04-08 14:13:00,
2013-04-08 10:18:00,72.4,61.2,30.21,SW,233,1.0,6.9,68,0.00,OVC,,0.00,0.0,WeatherDisplay:10.37,2013-04-08 14:18:00,
2013-04-08 10:23:00,73.1,61.5,30.21,SW,234,5.1,6.9,67,0.00,OVC,,0.00,0.0,WeatherDisplay:10.37,2013-04-08 14:23:00,
2013-04-08 10:28:00,73.8,61.3,30.21,West,280,4.4,9.2,65,0.00,OVC,,0.00,0.0,WeatherDisplay:10.37,2013-04-08 14:28:00,
2013-04-08 10:33:00,74.0,61.0,30.22,SSW,207,6.1,10.4,64,0.00,OVC,,0.00,0.0,WeatherDisplay:10.37,2013-04-08 14:33:00,
2013-04-08 10:38:00,73.7,60.8,30.21,WSW,256,7.4,13.8,64,0.00,OVC,,0.00,0.0,WeatherDisplay:10.37,2013-04-08 14:38:00,
2013-04-08 10:43:00,73.7,61.2,30.21,SW,217,7.0,15.0,65,0.00,OVC,,0.00,0.0,WeatherDisplay:10.37,2013-04-08 14:43:00,
2013-04-08 10:48:00,73.3,60.8,30.21,South,185,5.3,8.1,65,0.00,OVC,,0.00,0.0,WeatherDisplay:10.37,2013-04-08 14:48:00,
2013-04-08 10:53:00,73.4,60.9,30.21,SW,217,6.8,10.4,65,0.00,OVC,,0.00,0.0,WeatherDisplay:10.37,2013-04-08 14:53:00,
2013-04-08 10:58:00,73.4,60.5,30.21,SW,215,5.7,10.4,64,0.00,OVC,,0.00,0.0,WeatherDisplay:10.37,2013-04-08 14:58:00,
2013-04-08 11:03:00,73.6,60.2,30.21,West,273,5.3,9.2,63,0.00,OVC,,0.00,0.0,WeatherDisplay:10.37,2013-04-08 15:03:00,
2013-04-08 11:09:00,73.7,60.8,30.21,SSE,152,4.2,6.9,64,0.00,OVC,,0.00,0.0,WeatherDisplay:10.37,2013-04-08 15:09:00,
2013-04-08 11:14:00,74.3,60.4,30.20,West,259,4.0,9.2,62,0.00,OVC,,0.00,0.0,WeatherDisplay:10.37,2013-04-08 15:14:00,
2013-04-08 11:19:00,75.1,61.2,30.20,SW,218,2.7,3.5,62,0.00,OVC,,0.00,0.0,WeatherDisplay:10.37,2013-04-08 15:19:00,
2013-04-08 11:24:00,75.5,61.1,30.20,North,349,0.6,1.1,61,0.00,OVC,,0.00,0.0,WeatherDisplay:10.37,2013-04-08 15:24:00,
2013-04-08 11:31:00,76.1,60.2,30.20,WSW,252,4.7,6.9,58,0.00,OVC,,0.00,0.0,WeatherDisplay:10.37,2013-04-08 15:31:00,
2013-04-08 11:36:00,76.4,60.0,30.20,WNW,303,3.4,6.9,57,0.00,OVC,,0.00,0.0,WeatherDisplay:10.37,2013-04-08 15:36:00,
2013-04-08 11:41:00,76.4,60.0,30.20,West,262,5.3,6.9,57,0.00,OVC,,0.00,0.0,WeatherDisplay:10.37,2013-04-08 15:41:00,
2013-04-08 11:46:00,75.9,58.6,30.20,SSW,203,5.3,8.1,55,0.00,OVC,,0.00,0.0,WeatherDisplay:10.37,2013-04-08 15:46:00,
2013-04-08 11:52:00,75.1,58.8,30.20,WSW,255,3.3,6.9,57,0.00,OVC,,0.00,0.0,WeatherDisplay:10.37,2013-04-08 15:52:00,
2013-04-08 11:57:00,74.8,58.5,30.20,WSW,238,3.0,5.8,57,0.00,OVC,,0.00,0.0,WeatherDisplay:10.37,2013-04-08 15:57:00,
2013-04-08 12:02:00,74.4,57.7,30.20,SW,221,4.6,6.9,56,0.00,OVC,,0.00,0.0,WeatherDisplay:10.37,2013-04-08 16:02:00,
2013-04-08 12:07:00,74.6,58.4,30.20,West,275,2.7,5.8,57,0.00,OVC,,0.00,0.0,WeatherDisplay:10.37,2013-04-08 16:07:00,
2013-04-08 12:12:00,75.2,58.9,30.20,West,274,0.7,2.3,57,0.00,OVC,,0.00,0.0,WeatherDisplay:10.37,2013-04-08 16:12:00,
2013-04-08 12:17:00,76.0,60.2,30.19,South,182,3.3,5.8,58,0.00,OVC,,0.00,0.0,WeatherDisplay:10.37,2013-04-08 16:17:00,
2013-04-08 12:22:00,76.2,61.3,30.19,SW,219,2.0,3.5,60,0.00,OVC,,0.00,0.0,WeatherDisplay:10.37,2013-04-08 16:22:00,
2013-04-08 12:27:00,75.7,61.3,30.19,SSE,161,3.5,5.8,61,0.00,OVC,,0.00,0.0,WeatherDisplay:10.37,2013-04-08 16:27:00,
2013-04-08 12:32:00,75.2,61.3,30.19,SW,217,2.1,3.5,62,0.00,OVC,,0.00,0.0,WeatherDisplay:10.37,2013-04-08 16:32:00,
2013-04-08 12:37:00,74.9,61.0,30.19,WNW,296,0.6,1.1,62,0.00,OVC,,0.00,0.0,WeatherDisplay:10.37,2013-04-08 16:37:00,
2013-04-08 12:42:00,74.9,59.1,30.19,WSW,258,0.7,3.5,58,0.00,OVC,,0.00,0.0,WeatherDisplay:10.37,2013-04-08 16:42:00,
2013-04-08 12:47:00,74.9,60.5,30.18,South,169,3.7,8.1,61,0.00,OVC,,0.00,0.0,WeatherDisplay:10.37,2013-04-08 16:47:00,
2013-04-08 12:52:00,74.5,59.7,30.18,ESE,115,3.7,8.1,60,0.00,OVC,,0.00,0.0,WeatherDisplay:10.37,2013-04-08 16:52:00,
2013-04-08 12:57:00,74.4,58.7,30.18,ESE,121,1.6,3.5,58,0.00,OVC,,0.00,0.0,WeatherDisplay:10.37,2013-04-08 16:57:00,
2013-04-08 13:02:00,74.5,61.1,30.18,SSW,198,5.4,8.1,63,0.00,OVC,,0.00,0.0,WeatherDisplay:10.37,2013-04-08 17:02:00,
2013-04-08 13:07:00,74.5,61.5,30.18,ESE,111,0.3,4.6,64,0.00,OVC,,0.00,0.0,WeatherDisplay:10.37,2013-04-08 17:07:00,
2013-04-08 13:12:00,75.1,58.8,30.18,SSE,166,0.8,4.6,57,0.00,OVC,,0.00,0.0,WeatherDisplay:10.37,2013-04-08 17:12:00,
2013-04-08 13:17:00,75.5,58.2,30.18,West,259,0.9,4.6,55,0.00,OVC,,0.00,0.0,WeatherDisplay:10.37,2013-04-08 17:17:00,
2013-04-08 13:22:00,75.6,58.8,30.17,SW,226,4.1,6.9,56,0.00,OVC,,0.00,0.0,WeatherDisplay:10.37,2013-04-08 17:22:00,
2013-04-08 13:28:00,76.2,59.4,30.17,SSE,167,5.9,8.1,56,0.00,OVC,,0.00,0.0,WeatherDisplay:10.37,2013-04-08 17:28:00,
2013-04-08 13:33:00,76.1,59.3,30.17,SSW,204,2.7,11.5,56,0.00,OVC,,0.00,0.0,WeatherDisplay:10.37,2013-04-08 17:33:00,
2013-04-08 13:38:00,76.1,59.3,30.17,West,264,3.5,9.2,56,0.00,OVC,,0.00,0.0,WeatherDisplay:10.37,2013-04-08 17:38:00,
2013-04-08 13:43:00,76.6,58.2,30.17,SW,232,5.0,10.4,53,0.00,OVC,,0.00,0.0,WeatherDisplay:10.37,2013-04-08 17:43:00,
2013-04-08 13:48:00,76.7,58.3,30.17,South,175,5.7,9.2,53,0.00,OVC,,0.00,0.0,WeatherDisplay:10.37,2013-04-08 17:48:00,
2013-04-08 13:53:00,76.3,57.9,30.17,SSE,165,3.7,6.9,53,0.00,OVC,,0.00,0.0,WeatherDisplay:10.37,2013-04-08 17:53:00,
2013-04-08 13:58:00,76.5,58.1,30.17,South,178,3.7,8.0,53,0.00,OVC,,0.00,0.0,WeatherDisplay:10.37,2013-04-08 17:58:00,
2013-04-08 14:03:00,77.2,60.3,30.16,SSW,211,4.8,5.8,56,0.00,OVC,,0.00,0.0,WeatherDisplay:10.37,2013-04-08 18:03:00,
2013-04-08 14:08:00,77.4,58.9,30.16,South,182,6.9,10.4,53,0.00,OVC,,0.00,0.0,WeatherDisplay:10.37,2013-04-08 18:08:00,
2013-04-08 14:13:00,77.3,60.4,30.16,SE,142,5.2,9.2,56,0.00,OVC,,0.00,0.0,WeatherDisplay:10.37,2013-04-08 18:13:00,
2013-04-08 14:18:00,77.4,61.0,30.16,South,188,8.3,12.0,57,0.00,OVC,,0.00,0.0,WeatherDisplay:10.37,2013-04-08 18:18:00,
2013-04-08 14:23:00,77.2,60.8,30.16,SE,138,4.5,11.5,57,0.00,OVC,,0.00,0.0,WeatherDisplay:10.37,2013-04-08 18:23:00,
2013-04-08 14:28:00,77.2,59.8,30.16,SSW,207,6.2,11.5,55,0.00,OVC,,0.00,0.0,WeatherDisplay:10.37,2013-04-08 18:28:00,
2013-04-08 14:33:00,77.3,59.9,30.16,SSE,154,9.4,11.5,55,0.00,OVC,,0.00,0.0,WeatherDisplay:10.37,2013-04-08 18:33:00,
2013-04-08 14:38:00,77.3,60.9,30.16,South,180,7.1,11.5,57,0.00,OVC,,0.00,0.0,WeatherDisplay:10.37,2013-04-08 18:38:00,
2013-04-08 14:43:00,77.5,61.1,30.16,ESE,106,2.6,9.2,57,0.00,OVC,,0.00,0.0,WeatherDisplay:10.37,2013-04-08 18:43:00,
2013-04-08 14:48:00,77.6,61.2,30.15,SE,146,8.9,12.7,57,0.00,OVC,,0.00,0.0,WeatherDisplay:10.37,2013-04-08 18:48:00,
2013-04-08 14:53:00,77.0,60.6,30.15,SSE,163,9.5,18.4,57,0.00,OVC,,0.00,0.0,WeatherDisplay:10.37,2013-04-08 18:53:00,
2013-04-08 14:58:00,76.5,61.1,30.15,SSE,168,7.5,15.0,59,0.00,OVC,,0.00,0.0,WeatherDisplay:10.37,2013-04-08 18:58:00,
2013-04-08 15:03:00,76.2,61.3,30.15,SE,144,6.6,11.5,60,0.00,OVC,,0.00,0.0,WeatherDisplay:10.37,2013-04-08 19:03:00,
2013-04-08 15:09:00,76.3,61.4,30.15,SE,138,4.2,11.5,60,0.00,OVC,,0.00,0.0,WeatherDisplay:10.37,2013-04-08 19:09:00,
2013-04-08 15:14:00,76.5,61.1,30.14,SSE,154,6.9,13.0,59,0.00,OVC,,0.00,0.0,WeatherDisplay:10.37,2013-04-08 19:14:00,
2013-04-08 15:19:00,76.6,60.2,30.14,South,188,6.3,12.7,57,0.00,OVC,,0.00,0.0,WeatherDisplay:10.37,2013-04-08 19:19:00,
2013-04-08 15:24:00,76.6,60.2,30.14,SSE,151,7.2,14.0,57,0.00,OVC,,0.00,0.0,WeatherDisplay:10.37,2013-04-08 19:24:00,
2013-04-08 15:29:00,76.5,60.6,30.14,ENE,71,5.3,10.4,58,0.00,OVC,,0.00,0.0,WeatherDisplay:10.37,2013-04-08 19:29:00,
2013-04-08 15:34:00,76.1,60.2,30.14,SSE,154,9.1,15.0,58,0.00,OVC,,0.00,0.0,WeatherDisplay:10.37,2013-04-08 19:34:00,
2013-04-08 15:39:00,76.0,60.6,30.14,SSE,159,10.2,15.0,59,0.00,OVC,,0.00,0.0,WeatherDisplay:10.37,2013-04-08 19:39:00,
2013-04-08 15:44:00,75.8,60.4,30.13,SSE,157,7.6,11.5,59,0.00,OVC,,0.00,0.0,WeatherDisplay:10.37,2013-04-08 19:44:00,
2013-04-08 15:49:00,76.1,60.2,30.13,South,170,7.0,11.5,58,0.00,OVC,,0.00,0.0,WeatherDisplay:10.37,2013-04-08 19:49:00,
2013-04-08 15:54:00,76.2,60.3,30.13,South,190,4.9,10.0,58,0.00,OVC,,0.00,0.0,WeatherDisplay:10.37,2013-04-08 19:54:00,
2013-04-08 15:59:00,76.1,60.2,30.13,SSE,155,7.9,11.5,58,0.00,OVC,,0.00,0.0,WeatherDisplay:10.37,2013-04-08 19:59:00,
2013-04-08 16:05:00,76.0,60.2,30.14,SSW,196,6.1,17.3,58,0.00,OVC,,0.00,0.0,WeatherDisplay:10.37,2013-04-08 20:05:00,
2013-04-08 16:10:00,75.6,59.8,30.14,South,187,8.5,15.0,58,0.00,OVC,,0.00,0.0,WeatherDisplay:10.37,2013-04-08 20:10:00,
2013-04-08 16:15:00,75.6,60.3,30.14,South,172,5.3,12.0,59,0.00,OVC,,0.00,0.0,WeatherDisplay:10.37,2013-04-08 20:15:00,
2013-04-08 16:20:00,75.5,59.7,30.14,ESE,119,7.3,9.2,58,0.00,OVC,,0.00,0.0,WeatherDisplay:10.37,2013-04-08 20:20:00,
2013-04-08 16:25:00,75.5,59.7,30.14,SSE,161,9.4,15.0,58,0.00,OVC,,0.00,0.0,WeatherDisplay:10.37,2013-04-08 20:25:00,
2013-04-08 16:30:00,75.5,59.7,30.14,South,178,7.8,12.7,58,0.00,OVC,,0.00,0.0,WeatherDisplay:10.37,2013-04-08 20:30:00,
2013-04-08 16:35:00,75.6,60.3,30.14,SE,142,5.9,9.2,59,0.00,OVC,,0.00,0.0,WeatherDisplay:10.37,2013-04-08 20:35:00,
2013-04-08 16:40:00,75.9,60.1,30.13,South,171,5.3,8.1,58,0.00,OVC,,0.00,0.0,WeatherDisplay:10.37,2013-04-08 20:40:00,
2013-04-08 16:46:00,75.8,60.0,30.13,SSE,165,6.7,7.0,58,0.00,OVC,,0.00,0.0,WeatherDisplay:10.37,2013-04-08 20:46:00,
2013-04-08 16:51:00,75.6,60.3,30.13,South,175,5.7,11.5,59,0.00,OVC,,0.00,0.0,WeatherDisplay:10.37,2013-04-08 20:51:00,
2013-04-08 16:56:00,75.6,60.3,30.13,South,173,7.8,14.0,59,0.00,OVC,,0.00,0.0,WeatherDisplay:10.37,2013-04-08 20:56:00,
2013-04-08 17:01:00,75.1,59.8,30.13,SSE,163,5.2,12.0,59,0.00,OVC,,0.00,0.0,WeatherDisplay:10.37,2013-04-08 21:01:00,
2013-04-08 17:06:00,74.7,59.9,30.13,SE,132,4.1,9.2,60,0.00,OVC,,0.00,0.0,WeatherDisplay:10.37,2013-04-08 21:06:00,
2013-04-08 17:11:00,74.6,60.3,30.13,South,186,3.9,9.2,61,0.00,OVC,,0.00,0.0,WeatherDisplay:10.37,2013-04-08 21:11:00,
2013-04-08 17:16:00,74.3,60.0,30.13,SE,129,2.6,6.9,61,0.00,OVC,,0.00,0.0,WeatherDisplay:10.37,2013-04-08 21:16:00,
2013-04-08 17:22:00,74.2,60.3,30.13,SE,132,3.3,8.1,62,0.00,OVC,,0.00,0.0,WeatherDisplay:10.37,2013-04-08 21:22:00,
2013-04-08 17:27:00,73.9,60.1,30.14,SSE,161,7.1,11.5,62,0.00,OVC,,0.00,0.0,WeatherDisplay:10.37,2013-04-08 21:27:00,
2013-04-08 17:32:00,73.9,60.5,30.14,SSE,155,3.5,5.8,63,0.00,OVC,,0.00,0.0,WeatherDisplay:10.37,2013-04-08 21:32:00,
2013-04-08 17:37:00,74.3,60.0,30.14,South,186,6.3,11.5,61,0.00,OVC,,0.00,0.0,WeatherDisplay:10.37,2013-04-08 21:37:00,
2013-04-08 17:42:00,74.4,59.6,30.14,South,171,3.5,7.0,60,0.00,OVC,,0.00,0.0,WeatherDisplay:10.37,2013-04-08 21:42:00,
2013-04-08 17:47:00,74.3,59.5,30.14,South,169,6.1,10.4,60,0.00,OVC,,0.00,0.0,WeatherDisplay:10.37,2013-04-08 21:47:00,
2013-04-08 17:52:00,74.2,58.9,30.14,South,182,6.4,8.1,59,0.00,OVC,,0.00,0.0,WeatherDisplay:10.37,2013-04-08 21:52:00,
2013-04-08 17:57:00,74.1,58.4,30.14,SW,234,6.9,11.5,58,0.00,OVC,,0.00,0.0,WeatherDisplay:10.37,2013-04-08 21:57:00,
2013-04-08 18:02:00,73.9,58.7,30.14,South,188,6.1,10.4,59,0.00,OVC,,0.00,0.0,WeatherDisplay:10.37,2013-04-08 22:02:00,
2013-04-08 18:07:00,73.7,58.9,30.14,SSE,165,8.2,13.8,60,0.00,OVC,,0.00,0.0,WeatherDisplay:10.37,2013-04-08 22:07:00,
2013-04-08 18:12:00,73.4,59.1,30.14,South,189,8.1,12.7,61,0.00,OVC,,0.00,0.0,WeatherDisplay:10.37,2013-04-08 22:12:00,
2013-04-08 18:17:00,73.0,59.2,30.14,South,189,6.5,8.1,62,0.00,OVC,,0.00,0.0,WeatherDisplay:10.37,2013-04-08 22:17:00,
2013-04-08 18:22:00,72.5,59.2,30.14,SSW,208,8.4,15.0,63,0.00,OVC,,0.00,0.0,WeatherDisplay:10.37,2013-04-08 22:22:00,
2013-04-08 18:27:00,72.2,59.8,30.14,South,169,6.3,9.2,65,0.00,OVC,,0.00,0.0,WeatherDisplay:10.37,2013-04-08 22:27:00,
2013-04-08 18:32:00,72.1,60.1,30.14,SE,144,6.2,10.4,66,0.00,OVC,,0.00,0.0,WeatherDisplay:10.37,2013-04-08 22:32:00,
2013-04-08 18:37:00,72.0,60.4,30.14,SSE,150,6.0,11.5,67,0.00,OVC,,0.00,0.0,WeatherDisplay:10.37,2013-04-08 22:37:00,
2013-04-08 18:42:00,71.8,60.7,30.14,SSE,167,4.5,8.1,68,0.00,OVC,,0.00,0.0,WeatherDisplay:10.37,2013-04-08 22:42:00,
2013-04-08 18:47:00,71.5,60.4,30.14,East,92,3.6,9.2,68,0.00,OVC,,0.00,0.0,WeatherDisplay:10.37,2013-04-08 22:47:00,
2013-04-08 18:52:00,71.2,60.5,30.14,SSE,167,5.4,10.4,69,0.00,OVC,,0.00,0.0,WeatherDisplay:10.37,2013-04-08 22:52:00,
2013-04-08 18:57:00,70.8,60.1,30.14,SSE,159,4.8,9.0,69,0.00,OVC,,0.00,0.0,WeatherDisplay:10.37,2013-04-08 22:57:00,
2013-04-08 19:02:00,70.5,60.2,30.14,ESE,119,4.9,9.2,70,0.00,OVC,,0.00,0.0,WeatherDisplay:10.37,2013-04-08 23:02:00,
2013-04-08 19:07:00,70.2,60.4,30.15,SSW,211,4.8,9.0,71,0.00,OVC,,0.00,0.0,WeatherDisplay:10.37,2013-04-08 23:07:00,
2013-04-08 19:13:00,70.0,60.2,30.15,SSW,198,1.9,3.5,71,0.00,OVC,,0.00,0.0,WeatherDisplay:10.37,2013-04-08 23:13:00,
2013-04-08 19:18:00,69.7,59.9,30.15,SSE,159,1.8,4.6,71,0.00,OVC,,0.00,0.0,WeatherDisplay:10.37,2013-04-08 23:18:00,
2013-04-08 19:23:00,69.4,60.0,30.15,SSE,158,2.3,6.0,72,0.00,OVC,,0.00,0.0,WeatherDisplay:10.37,2013-04-08 23:23:00,
2013-04-08 19:28:00,69.1,59.7,30.15,SSW,205,0.1,3.5,72,0.00,OVC,,0.00,0.0,WeatherDisplay:10.37,2013-04-08 23:28:00,
2013-04-08 19:33:00,68.8,59.8,30.15,SSW,194,1.5,3.0,73,0.00,OVC,,0.00,0.0,WeatherDisplay:10.37,2013-04-08 23:33:00,
2013-04-08 19:38:00,68.4,59.4,30.15,SE,142,0.0,1.1,73,0.00,OVC,,0.00,0.0,WeatherDisplay:10.37,2013-04-08 23:38:00,
2013-04-08 19:43:00,68.1,59.1,30.15,SSE,162,0.0,1.1,73,0.00,OVC,,0.00,0.0,WeatherDisplay:10.37,2013-04-08 23:43:00,
2013-04-08 19:48:00,67.9,59.3,30.15,SSE,163,0.0,0.0,74,0.00,OVC,,0.00,0.0,WeatherDisplay:10.37,2013-04-08 23:48:00,
2013-04-08 19:53:00,67.6,59.0,30.15,SSE,163,0.0,0.0,74,0.00,OVC,,0.00,0.0,WeatherDisplay:10.37,2013-04-08 23:53:00,
2013-04-08 19:58:00,67.2,59.0,30.15,South,175,0.0,0.0,75,0.00,OVC,,0.00,0.0,WeatherDisplay:10.37,2013-04-08 23:58:00,
2013-04-08 20:03:00,67.0,59.2,30.15,SSE,149,0.4,1.1,76,0.00,OVC,,0.00,0.0,WeatherDisplay:10.37,2013-04-09 00:03:00,
2013-04-08 20:08:00,66.7,58.9,30.15,South,171,0.3,2.0,76,0.00,CLR,OVC,0.00,0.0,WeatherDisplay:10.37,2013-04-09 00:08:00,
2013-04-08 20:13:00,66.6,58.8,30.15,SSW,200,1.9,7.0,76,0.00,CLR,OVC,0.00,0.0,WeatherDisplay:10.37,2013-04-09 00:13:00,
2013-04-08 20:18:00,66.6,59.2,30.15,SSE,162,3.1,7.0,77,0.00,CLR,OVC,0.00,0.0,WeatherDisplay:10.37,2013-04-09 00:18:00,
2013-04-08 20:23:00,66.6,59.2,30.15,South,185,4.6,9.0,77,0.00,CLR,OVC,0.00,0.0,WeatherDisplay:10.37,2013-04-09 00:23:00,
2013-04-08 20:28:00,66.6,59.2,30.15,SW,215,4.9,11.5,77,0.00,CLR,OVC,0.00,0.0,WeatherDisplay:10.37,2013-04-09 00:28:00,
2013-04-08 20:33:00,66.7,59.3,30.15,SSE,162,1.8,3.5,77,0.00,CLR,OVC,0.00,0.0,WeatherDisplay:10.37,2013-04-09 00:33:00,
2013-04-08 20:38:00,66.6,59.2,30.15,South,191,5.5,10.4,77,0.00,CLR,OVC,0.00,0.0,WeatherDisplay:10.37,2013-04-09 00:38:00,
2013-04-08 20:43:00,66.6,59.2,30.15,WSW,254,4.8,6.9,77,0.00,CLR,OVC,0.00,0.0,WeatherDisplay:10.37,2013-04-09 00:43:00,
2013-04-08 20:48:00,66.5,59.1,30.15,SSE,161,2.6,5.8,77,0.00,CLR,OVC,0.00,0.0,WeatherDisplay:10.37,2013-04-09 00:48:00,
2013-04-08 20:53:00,66.3,58.9,30.16,SW,219,1.0,2.3,77,0.00,CLR,OVC,0.00,0.0,WeatherDisplay:10.37,2013-04-09 00:53:00,
2013-04-08 20:58:00,66.2,58.8,30.16,South,173,1.5,4.6,77,0.00,CLR,OVC,0.00,0.0,WeatherDisplay:10.37,2013-04-09 00:58:00,
2013-04-08 21:03:00,66.1,59.0,30.16,South,186,2.7,5.0,78,0.00,CLR,OVC,0.00,0.0,WeatherDisplay:10.37,2013-04-09 01:03:00,
2013-04-08 21:08:00,66.0,58.9,30.16,SSE,166,3.8,6.9,78,0.00,CLR,OVC,0.00,0.0,WeatherDisplay:10.37,2013-04-09 01:08:00,
2013-04-08 21:13:00,65.8,58.7,30.16,SSW,192,0.7,2.3,78,0.00,CLR,OVC,0.00,0.0,WeatherDisplay:10.37,2013-04-09 01:13:00,
2013-04-08 21:18:00,65.7,58.7,30.16,South,169,0.9,2.3,78,0.00,CLR,OVC,0.00,0.0,WeatherDisplay:10.37,2013-04-09 01:18:00,
2013-04-08 21:23:00,65.5,58.8,30.16,SSE,153,0.8,2.3,79,0.00,CLR,OVC,0.00,0.0,WeatherDisplay:10.37,2013-04-09 01:23:00,
2013-04-08 21:28:00,65.3,58.6,30.16,SSE,165,0.3,3.5,79,0.00,CLR,OVC,0.00,0.0,WeatherDisplay:10.37,2013-04-09 01:28:00,
2013-04-08 21:33:00,65.2,58.5,30.17,South,190,1.0,3.5,79,0.00,CLR,OVC,0.00,0.0,WeatherDisplay:10.37,2013-04-09 01:33:00,
2013-04-08 21:38:00,65.0,58.7,30.17,South,175,0.3,1.1,80,0.00,CLR,OVC,0.00,0.0,WeatherDisplay:10.37,2013-04-09 01:38:00,
2013-04-08 21:43:00,64.8,58.5,30.17,South,173,0.4,2.3,80,0.00,CLR,OVC,0.00,0.0,WeatherDisplay:10.37,2013-04-09 01:43:00,
2013-04-08 21:48:00,64.5,58.2,30.17,South,175,0.2,1.1,80,0.00,CLR,OVC,0.00,0.0,WeatherDisplay:10.37,2013-04-09 01:48:00,
2013-04-08 21:53:00,64.3,58.3,30.17,SSE,157,0.3,2.3,81,0.00,CLR,OVC,0.00,0.0,WeatherDisplay:10.37,2013-04-09 01:53:00,
2013-04-08 21:58:00,64.1,58.5,30.17,SSE,153,0.1,1.1,82,0.00,CLR,OVC,0.00,0.0,WeatherDisplay:10.37,2013-04-09 01:58:00,
2013-04-08 22:03:00,63.9,58.3,30.17,South,190,0.4,2.3,82,0.00,CLR,OVC,0.00,0.0,WeatherDisplay:10.37,2013-04-09 02:03:00,
2013-04-08 22:08:00,63.7,58.4,30.18,South,171,0.0,0.0,83,0.00,CLR,OVC,0.00,0.0,WeatherDisplay:10.37,2013-04-09 02:08:00,
2013-04-08 22:13:00,63.5,58.2,30.18,South,171,0.3,1.1,83,0.00,CLR,OVC,0.00,0.0,WeatherDisplay:10.37,2013-04-09 02:13:00,
2013-04-08 22:18:00,63.2,57.9,30.18,South,169,0.1,1.1,83,0.00,CLR,OVC,0.00,0.0,WeatherDisplay:10.37,2013-04-09 02:18:00,
2013-04-08 22:23:00,63.1,58.2,30.18,South,169,0.0,0.0,84,0.00,CLR,OVC,0.00,0.0,WeatherDisplay:10.37,2013-04-09 02:23:00,
2013-04-08 22:29:00,62.8,57.9,30.18,South,171,0.9,1.1,84,0.00,CLR,OVC,0.00,0.0,WeatherDisplay:10.37,2013-04-09 02:29:00,
2013-04-08 22:34:00,62.7,58.1,30.18,South,175,0.8,2.3,85,0.00,CLR,OVC,0.00,0.0,WeatherDisplay:10.37,2013-04-09 02:34:00,
2013-04-08 22:39:00,62.6,58.0,30.18,South,175,1.2,2.0,85,0.00,CLR,OVC,0.00,0.0,WeatherDisplay:10.37,2013-04-09 02:39:00,
2013-04-08 22:44:00,62.5,58.3,30.18,South,177,0.6,2.3,86,0.00,CLR,OVC,0.00,0.0,WeatherDisplay:10.37,2013-04-09 02:44:00,
2013-04-08 22:49:00,62.5,58.3,30.18,South,176,0.5,2.3,86,0.00,CLR,OVC,0.00,0.0,WeatherDisplay:10.37,2013-04-09 02:49:00,
2013-04-08 22:54:00,62.4,58.2,30.18,South,176,0.2,1.1,86,0.00,CLR,OVC,0.00,0.0,WeatherDisplay:10.37,2013-04-09 02:54:00,
2013-04-08 22:59:00,62.4,58.2,30.18,SSW,194,0.7,3.5,86,0.00,CLR,OVC,0.00,0.0,WeatherDisplay:10.37,2013-04-09 02:59:00,
2013-04-08 23:04:00,62.3,58.1,30.18,South,190,0.1,1.1,86,0.00,CLR,OVC,0.00,0.0,WeatherDisplay:10.37,2013-04-09 03:04:00,
2013-04-08 23:09:00,62.3,58.1,30.18,South,186,1.3,3.5,86,0.00,CLR,OVC,0.00,0.0,WeatherDisplay:10.37,2013-04-09 03:09:00,
2013-04-08 23:15:00,62.3,58.4,30.18,South,185,1.1,3.5,87,0.00,CLR,OVC,0.00,0.0,WeatherDisplay:10.37,2013-04-09 03:15:00,
2013-04-08 23:20:00,62.5,58.6,30.17,South,185,0.8,3.5,87,0.00,CLR,OVC,0.00,0.0,WeatherDisplay:10.37,2013-04-09 03:20:00,
2013-04-08 23:25:00,62.5,58.6,30.17,South,175,1.4,3.5,87,0.00,CLR,OVC,0.00,0.0,WeatherDisplay:10.37,2013-04-09 03:25:00,
2013-04-08 23:30:00,62.6,58.7,30.17,South,174,0.8,2.3,87,0.00,CLR,OVC,0.00,0.0,WeatherDisplay:10.37,2013-04-09 03:30:00,
2013-04-08 23:35:00,62.6,58.7,30.17,South,169,0.6,2.3,87,0.00,CLR,OVC,0.00,0.0,WeatherDisplay:10.37,2013-04-09 03:35:00,
2013-04-08 23:40:00,62.7,58.8,30.18,South,176,1.1,2.3,87,0.00,CLR,OVC,0.00,0.0,WeatherDisplay:10.37,2013-04-09 03:40:00,
2013-04-08 23:45:00,62.7,58.8,30.18,South,173,1.0,3.5,87,0.00,CLR,OVC,0.00,0.0,WeatherDisplay:10.37,2013-04-09 03:45:00,
2013-04-08 23:50:00,62.8,58.9,30.18,South,174,0.4,1.1,87,0.00,CLR,OVC,0.00,0.0,WeatherDisplay:10.37,2013-04-09 03:50:00,
2013-04-08 23:55:00,62.7,58.8,30.18,South,174,0.5,1.1,87,0.00,CLR,OVC,0.00,0.0,WeatherDisplay:10.37,2013-04-09 03:55:00,